User: anonymous   Login
Location: Darlington Observatory
(36.4817°N, 105.8156°W)
Time: 14:37:39
(UTC-06:00)
Language:

MOS 1 - Orbit

View from above orbital plane
View from above orbital plane
View from above satellite
View from above satellite

Ground track
Ground track

The orbit data is extracted from the following two-line orbital elements,

1 17527U 87018A   17142.97481331 +.00000265 +00000-0 +20255-3 0  9997
2 17527 099.2671 156.8047 0008439 006.3042 013.1355 14.02474837545718
Epoch (UTC): 22 May 2017 23:23:43
Eccentricity: 0.0008439
inclination: 99.2671°
perigee height: 879 km
apogee height: 891 km
right ascension of ascending node: 156.8047°
argument of perigee: 6.3042°
revolutions per day: 14.02474837
mean anomaly at epoch: 13.1355°
orbit number at epoch: 54571

The dashed part of the orbit path shows where the satellite is in the earth's shadow,  

DLR